sat.trackr.live / text

‹ back to catalog

STARLINK-1464

NORAD 45751 · 2020-038X

PAYLOAD ACTIVE UNKNOWN

§ Identity

Operator
Country
US
Launch date
2020-06-13
Launch site
AFETR
Launch vehicle
Mass (kg)
RCS (m²)

Purposes: comms

External: N2YO · Heavens-Above · Gunter

§ Orbital elements

Epoch: 2026-09-12T06:00:02.000160Z

Period
91.63 min
Inclination
53.0430°
Eccentricity
0.0001471
Mean motion
15.71551561 rev/d
Perigee alt
353.5 km
Apogee alt
355.5 km
Semi-major
6,732.6 km
B*
1.5085e-4
RAAN
23.9290°
Arg perigee
88.3148°
Mean anomaly
166.6825°
Rev number
589

§ Raw data

STARLINK-14641 45751U 20038X   26255.25002315  .00019181  00000+0  15085-3 0  99942 45751  53.0430  23.9290 0001471  88.3148 166.6825 15.71551561  5892

JSON: /api/v1/satellites/45751 · /tle

For live sub-satellite position, see the globe view (requires WebGL).

§ Visibility from observer

Set your observer location to see the next 7 days of passes ≥ 10°. The values pass through the URL so the page stays shareable.

No JS? Fill the form by hand. The geolocation button needs JavaScript.